AIC5955 UBBB-VIDP

Flight info

Callsign AIC5955
Flight time N/A
Altitude 37000
Route NAMAS N35 RODAR A909 LEMOD DCT SADAM DCT BOXUD DCT PAKPI DCT KARAL DCT SEMKO DCT UXIDA DCT ATOPA
Aircraft B742/H-SDFHIRWXY/L

Departure

Time 2026-04-29 07:48
Airport Heydar Aliyev International Airport (UBBB)

Arrival

Time N/A
Airport Indira Gandhi International Airport (VIDP)
Time Latitude Longitude Altitude Speed Heading
2026-04-29 07:32 40.46307 50.06758 -3 ft 0 kts 93°
2026-04-29 07:36 40.46307 50.06754 -4 ft 2 kts 93°
2026-04-29 07:36 40.46308 50.06735 -4 ft 2 kts 93°
2026-04-29 07:36 40.46309 50.06715 -4 ft 2 kts 93°
2026-04-29 07:36 40.46311 50.06695 -5 ft 2 kts 108°
2026-04-29 07:37 40.46318 50.06678 -5 ft 2 kts 128°
2026-04-29 07:37 40.46329 50.06664 -5 ft 2 kts 147°
2026-04-29 07:37 40.46342 50.06656 -5 ft 2 kts 165°
2026-04-29 07:37 40.46353 50.06654 -4 ft 1 kts 179°
2026-04-29 07:38 40.46359 50.06652 -4 ft 0 kts 178°
2026-04-29 07:38 40.46365 50.06652 -3 ft 1 kts 175°
2026-04-29 07:38 40.46373 50.06652 -3 ft 0 kts 180°
2026-04-29 07:38 40.46378 50.06652 -3 ft 0 kts 180°
2026-04-29 07:39 40.46383 50.06652 -3 ft 0 kts 179°
2026-04-29 07:40 40.46347 50.06652 -4 ft 15 kts 180°
2026-04-29 07:40 40.46229 50.06654 -5 ft 17 kts 180°
2026-04-29 07:40 40.46108 50.06645 -7 ft 17 kts 193°
2026-04-29 07:41 40.46050 50.06530 -8 ft 16 kts 269°
2026-04-29 07:41 40.46055 50.06383 -8 ft 16 kts 273°
2026-04-29 07:41 40.46085 50.06322 -8 ft 3 kts 17°
2026-04-29 07:41 40.46123 50.06325 -8 ft 12 kts
2026-04-29 07:42 40.46269 50.06318 -6 ft 28 kts 357°
2026-04-29 07:42 40.46464 50.06309 -2 ft 27 kts
2026-04-29 07:42 40.46560 50.06199 -2 ft 19 kts 263°
2026-04-29 07:42 40.46569 50.06028 -2 ft 16 kts 294°
2026-04-29 07:43 40.46529 50.05903 -2 ft 22 kts 232°
2026-04-29 07:43 40.46497 50.05643 -2 ft 32 kts 268°
2026-04-29 07:43 40.46607 50.05429 -5 ft 30 kts 341°
2026-04-29 07:43 40.46796 50.05321 -8 ft 29 kts 300°
2026-04-29 07:44 40.46776 50.05071 -7 ft 26 kts 221°
2026-04-29 07:44 40.46625 50.04982 -5 ft 25 kts 206°
2026-04-29 07:44 40.46487 50.04837 -5 ft 25 kts 229°
2026-04-29 07:44 40.46346 50.04720 -5 ft 24 kts 205°
2026-04-29 07:45 40.46218 50.04596 -9 ft 19 kts 203°
2026-04-29 07:45 40.46096 50.04639 -10 ft 18 kts 159°
2026-04-29 07:45 40.45949 50.04708 -11 ft 26 kts 160°
2026-04-29 07:45 40.45780 50.04686 -13 ft 25 kts 205°
2026-04-29 07:46 40.45680 50.04506 -15 ft 25 kts 249°
2026-04-29 07:46 40.45628 50.04287 -18 ft 25 kts 257°
2026-04-29 07:46 40.45621 50.04129 -18 ft 12 kts 307°
2026-04-29 07:46 40.45690 50.04082 -18 ft 10 kts 348°
2026-04-29 07:47 40.45759 50.04065 -18 ft 10 kts 348°
2026-04-29 07:47 40.45878 50.04029 -17 ft 29 kts 346°
2026-04-29 07:47 40.46188 50.03933 -15 ft 71 kts 346°
2026-04-29 07:47 40.46879 50.03716 -11 ft 132 kts 348°
2026-04-29 07:48 40.47911 50.03427 175 ft 161 kts 345°
2026-04-29 07:48 40.48993 50.03095 703 ft 162 kts 343°
2026-04-29 07:48 40.50085 50.02708 1214 ft 168 kts 342°
2026-04-29 07:48 40.51243 50.02305 1698 ft 176 kts 342°
2026-04-29 07:49 40.52452 50.01907 2171 ft 185 kts 343°
2026-04-29 07:49 40.53686 50.01517 2559 ft 181 kts 343°
2026-04-29 07:49 40.54915 50.01137 2851 ft 186 kts 343°
2026-04-29 07:49 40.56201 50.00742 3147 ft 196 kts 343°
2026-04-29 07:50 40.57585 50.00319 3426 ft 210 kts 343°
2026-04-29 07:50 40.59055 49.99896 3650 ft 228 kts 349°
2026-04-29 07:50 40.60692 50.00205 3866 ft 257 kts 22°
2026-04-29 07:50 40.62078 50.01814 4277 ft 276 kts 56°
2026-04-29 07:51 40.62639 50.04218 4923 ft 283 kts 88°
2026-04-29 07:51 40.62213 50.06734 5559 ft 285 kts 118°
2026-04-29 07:51 40.61319 50.09043 6209 ft 288 kts 112°
2026-04-29 07:51 40.60752 50.11578 6911 ft 290 kts 102°
2026-04-29 07:52 40.60398 50.14175 7601 ft 293 kts 99°
2026-04-29 07:52 40.60105 50.16846 8297 ft 296 kts 98°
2026-04-29 07:52 40.59831 50.19495 8969 ft 299 kts 99°
2026-04-29 07:52 40.59550 50.22210 9651 ft 301 kts 99°
2026-04-29 07:53 40.59264 50.24963 10318 ft 306 kts 99°
2026-04-29 07:53 40.58940 50.27792 10584 ft 326 kts 103°
2026-04-29 07:53 40.58285 50.30733 10856 ft 343 kts 112°
2026-04-29 07:53 40.57339 50.33696 11116 ft 361 kts 117°
2026-04-29 07:54 40.56243 50.36748 11492 ft 374 kts 118°
2026-04-29 07:54 40.55117 50.39805 12332 ft 374 kts 118°
2026-04-29 07:54 40.53969 50.42913 13009 ft 379 kts 118°
2026-04-29 07:54 40.52819 50.46037 13664 ft 383 kts 118°
2026-04-29 07:55 40.51670 50.49173 14306 ft 387 kts 118°
2026-04-29 07:55 40.50505 50.52352 14930 ft 392 kts 118°
2026-04-29 07:55 40.49318 50.55592 15533 ft 396 kts 118°
2026-04-29 07:55 40.48106 50.58896 16139 ft 400 kts 118°
2026-04-29 07:56 40.46903 50.62175 16707 ft 404 kts 118°
2026-04-29 07:56 40.45676 50.65510 17282 ft 409 kts 119°
2026-04-29 07:56 40.44433 50.68837 17853 ft 412 kts 120°
2026-04-29 07:56 40.43146 50.72260 18408 ft 416 kts 119°
2026-04-29 07:57 40.41881 50.75645 18958 ft 421 kts 119°
2026-04-29 07:57 40.40587 50.79125 19530 ft 425 kts 119°
2026-04-29 07:57 40.39287 50.82633 20086 ft 429 kts 119°
2026-04-29 07:57 40.37987 50.86141 20640 ft 434 kts 119°
2026-04-29 07:58 40.36674 50.89703 21182 ft 438 kts 117°
2026-04-29 07:58 40.35701 50.93563 21696 ft 448 kts 103°
2026-04-29 07:58 40.35424 50.97602 22224 ft 454 kts 89°
2026-04-29 07:58 40.35849 51.01723 22745 ft 459 kts 75°
2026-04-29 07:59 40.36864 51.05659 23326 ft 461 kts 70°
2026-04-29 07:59 40.37880 51.09674 23870 ft 465 kts 72°
2026-04-29 07:59 40.38818 51.13752 24410 ft 469 kts 73°
2026-04-29 07:59 40.39734 51.17899 24938 ft 473 kts 73°
2026-04-29 08:00 40.40637 51.22045 25437 ft 477 kts 73°
2026-04-29 08:00 40.41552 51.26251 25944 ft 481 kts 73°
2026-04-29 08:00 40.42466 51.30449 26434 ft 485 kts 73°
2026-04-29 08:00 40.43389 51.34683 26928 ft 489 kts 73°
2026-04-29 08:01 40.44309 51.38900 27409 ft 493 kts 73°
2026-04-29 08:01 40.45232 51.43263 27852 ft 498 kts 76°
2026-04-29 08:01 40.45745 51.47754 28271 ft 501 kts 86°
2026-04-29 08:01 40.45717 51.52334 28644 ft 505 kts 95°
2026-04-29 08:02 40.45289 51.56912 29059 ft 507 kts 100°
2026-04-29 08:02 40.44627 51.61454 29436 ft 510 kts 103°
2026-04-29 08:02 40.43843 51.65983 29814 ft 513 kts 105°
2026-04-29 08:02 40.42984 51.70536 30190 ft 515 kts 106°
2026-04-29 08:03 40.42104 51.75076 30532 ft 517 kts 106°
2026-04-29 08:03 40.41219 51.79680 30807 ft 521 kts 106°
2026-04-29 08:03 40.40355 51.84249 31145 ft 522 kts 106°
2026-04-29 08:03 40.39491 51.88869 31406 ft 525 kts 105°
2026-04-29 08:04 40.38620 51.93562 31666 ft 527 kts 105°
2026-04-29 08:04 40.37752 51.98246 31881 ft 530 kts 105°
2026-04-29 08:04 40.36890 52.02900 32149 ft 531 kts 105°
2026-04-29 08:04 40.36022 52.07573 32373 ft 534 kts 105°
2026-04-29 08:05 40.35131 52.12361 32634 ft 535 kts 105°
2026-04-29 08:05 40.34252 52.17065 32986 ft 534 kts 105°
2026-04-29 08:05 40.33380 52.21723 33358 ft 532 kts 105°
2026-04-29 08:05 40.32499 52.26420 33652 ft 532 kts 105°
2026-04-29 08:06 40.31609 52.31146 33951 ft 532 kts 105°
2026-04-29 08:06 40.30724 52.35839 34278 ft 530 kts 105°
2026-04-29 08:06 40.29839 52.40517 34544 ft 530 kts 105°
2026-04-29 08:06 40.28952 52.45191 34814 ft 530 kts 105°
2026-04-29 08:07 40.28064 52.49864 34999 ft 532 kts 105°
2026-04-29 08:07 40.27163 52.54592 35043 ft 535 kts 105°
2026-04-29 08:07 40.25362 52.64026 35049 ft 531 kts 105°
2026-04-29 08:08 40.23548 52.73306 35050 ft 528 kts 107°
2026-04-29 08:08 40.21719 52.82582 35054 ft 531 kts 107°
2026-04-29 08:09 40.19884 52.92001 35052 ft 534 kts 106°
2026-04-29 08:09 40.18062 53.01389 35050 ft 534 kts 106°
2026-04-29 08:10 40.16235 53.10754 35051 ft 536 kts 106°
2026-04-29 08:10 40.14392 53.20161 35052 ft 535 kts 106°
2026-04-29 08:11 40.12548 53.29528 35052 ft 534 kts 106°
2026-04-29 08:11 40.10693 53.38905 35050 ft 535 kts 106°
2026-04-29 08:12 40.08830 53.48277 35052 ft 535 kts 106°
2026-04-29 08:12 40.06949 53.57696 35052 ft 535 kts 106°
2026-04-29 08:13 40.05069 53.67059 35050 ft 534 kts 107°
2026-04-29 08:13 40.03132 53.76397 35050 ft 534 kts 107°
2026-04-29 08:14 40.01209 53.85726 35052 ft 535 kts 107°
2026-04-29 08:14 39.99294 53.95113 35051 ft 535 kts 107°
2026-04-29 08:15 39.97385 54.04466 35052 ft 534 kts 107°
2026-04-29 08:15 39.95468 54.13812 35050 ft 534 kts 107°
2026-04-29 08:16 39.93550 54.23115 35052 ft 535 kts 107°
2026-04-29 08:16 39.91613 54.32476 35052 ft 534 kts 107°
2026-04-29 08:17 39.89681 54.41769 35053 ft 535 kts 107°
2026-04-29 08:17 39.87720 54.51123 35050 ft 534 kts 107°
2026-04-29 08:18 39.85748 54.60458 35052 ft 535 kts 107°
2026-04-29 08:18 39.83758 54.69761 35050 ft 534 kts 108°
2026-04-29 08:19 39.81733 54.79018 35051 ft 533 kts 108°
2026-04-29 08:19 39.79746 54.88256 35051 ft 534 kts 108°
2026-04-29 08:20 39.77760 54.97553 35051 ft 535 kts 108°
2026-04-29 08:20 39.75759 55.06898 35052 ft 536 kts 107°
2026-04-29 08:21 39.73766 55.16157 35052 ft 536 kts 107°
2026-04-29 08:21 39.71743 55.25514 35053 ft 539 kts 107°
2026-04-29 08:22 39.69715 55.34848 35049 ft 538 kts 107°
2026-04-29 08:22 39.67683 55.44134 35051 ft 538 kts 107°
2026-04-29 08:23 39.65635 55.53448 35051 ft 538 kts 107°
2026-04-29 08:23 39.63573 55.62789 35051 ft 537 kts 107°
2026-04-29 08:24 39.61481 55.72085 35050 ft 537 kts 109°
2026-04-29 08:24 39.59365 55.81364 35052 ft 538 kts 108°
2026-04-29 08:25 39.57275 55.90653 35051 ft 537 kts 108°
2026-04-29 08:25 39.55222 55.99879 35050 ft 537 kts 108°
2026-04-29 08:26 39.53146 56.09199 35051 ft 538 kts 108°
2026-04-29 08:26 39.51070 56.18470 35050 ft 538 kts 108°
2026-04-29 08:27 39.48976 56.27780 35040 ft 537 kts 108°
2026-04-29 08:27 39.46893 56.37001 35029 ft 538 kts 108°
2026-04-29 08:28 39.44776 56.46336 35022 ft 538 kts 108°
2026-04-29 08:28 39.42667 56.55598 35022 ft 539 kts 108°
2026-04-29 08:29 39.40561 56.64807 35021 ft 539 kts 108°
2026-04-29 08:29 39.38388 56.74082 35022 ft 537 kts 109°
2026-04-29 08:30 39.35009 56.87883 35022 ft 538 kts 110°
2026-04-29 08:31 39.32667 56.97003 35021 ft 537 kts 110°
2026-04-29 08:31 39.30310 57.06155 35023 ft 539 kts 110°
2026-04-29 08:32 39.27941 57.15354 35023 ft 540 kts 110°
2026-04-29 08:32 39.25577 57.24509 35023 ft 540 kts 110°
2026-04-29 08:33 39.23209 57.33646 35024 ft 540 kts 110°
2026-04-29 08:33 39.20829 57.42793 35021 ft 540 kts 110°
2026-04-29 08:34 39.18438 57.51949 35021 ft 540 kts 110°
2026-04-29 08:34 39.16042 57.61087 35022 ft 540 kts 110°
2026-04-29 08:35 39.13609 57.70262 35022 ft 539 kts 111°
2026-04-29 08:35 39.11156 57.79345 35021 ft 539 kts 111°
2026-04-29 08:36 39.08711 57.88491 35021 ft 539 kts 111°
2026-04-29 08:36 39.06296 57.97562 35021 ft 540 kts 110°
2026-04-29 08:37 39.03873 58.06647 35022 ft 540 kts 110°
2026-04-29 08:37 39.01427 58.15780 35020 ft 537 kts 110°
2026-04-29 08:38 38.98992 58.24839 35023 ft 536 kts 110°
2026-04-29 08:38 38.96576 58.33792 35022 ft 534 kts 110°
2026-04-29 08:39 38.94138 58.42799 35023 ft 532 kts 110°
2026-04-29 08:39 38.91710 58.51731 35022 ft 530 kts 110°
2026-04-29 08:40 38.89280 58.60510 35020 ft 528 kts 112°
2026-04-29 08:40 38.86290 58.69044 35021 ft 525 kts 118°
2026-04-29 08:41 38.82968 58.77395 35022 ft 526 kts 119°
2026-04-29 08:41 38.79661 58.85689 35021 ft 527 kts 118°
2026-04-29 08:42 38.76349 58.94085 35022 ft 527 kts 118°
2026-04-29 08:42 38.73053 59.02455 35022 ft 528 kts 118°
2026-04-29 08:43 38.69759 59.10805 35022 ft 527 kts 118°
2026-04-29 08:43 38.66463 59.19129 35022 ft 527 kts 118°
2026-04-29 08:44 38.63148 59.27481 35021 ft 528 kts 118°
2026-04-29 08:44 38.59827 59.35853 35022 ft 528 kts 117°
2026-04-29 08:45 38.56649 59.44297 35021 ft 528 kts 116°
2026-04-29 08:45 38.53534 59.52755 35022 ft 528 kts 116°
2026-04-29 08:46 38.50410 59.61203 35022 ft 528 kts 116°
2026-04-29 08:46 38.47247 59.69660 35021 ft 527 kts 117°
2026-04-29 08:47 38.44069 59.78028 35023 ft 528 kts 117°
2026-04-29 08:47 38.40884 59.86475 35021 ft 528 kts 117°
2026-04-29 08:48 38.37718 59.94906 35022 ft 527 kts 117°
2026-04-29 08:48 38.34558 60.03305 35023 ft 528 kts 117°
2026-04-29 08:49 38.31386 60.11713 35022 ft 528 kts 117°
2026-04-29 08:49 38.28207 60.20114 35021 ft 527 kts 117°
2026-04-29 08:50 38.25043 60.28452 35022 ft 528 kts 117°
2026-04-29 08:50 38.21841 60.36867 35021 ft 528 kts 117°
2026-04-29 08:51 38.18641 60.45256 35022 ft 528 kts 117°
2026-04-29 08:51 38.15449 60.53598 35021 ft 529 kts 117°
2026-04-29 08:52 38.12236 60.61971 35023 ft 529 kts 117°
2026-04-29 08:52 38.08987 60.70358 35021 ft 527 kts 118°
2026-04-29 08:53 38.05726 60.78669 35021 ft 528 kts 118°
2026-04-29 08:53 38.02497 60.86964 35022 ft 528 kts 118°
2026-04-29 08:54 37.99271 60.95277 35022 ft 528 kts 117°
2026-04-29 08:54 37.96017 61.03648 35022 ft 528 kts 118°
2026-04-29 08:55 37.92769 61.11980 35024 ft 531 kts 118°
2026-04-29 08:55 37.89505 61.20328 35021 ft 533 kts 118°
2026-04-29 08:56 37.86223 61.28706 35021 ft 532 kts 118°
2026-04-29 08:56 37.82949 61.37038 35022 ft 532 kts 118°
2026-04-29 08:57 37.79642 61.45425 35021 ft 532 kts 118°
2026-04-29 08:57 37.76363 61.53724 35021 ft 532 kts 118°
2026-04-29 08:58 37.73051 61.62082 35022 ft 532 kts 118°
2026-04-29 08:58 37.69716 61.70415 35022 ft 532 kts 119°
2026-04-29 08:59 37.66349 61.78730 35021 ft 532 kts 119°
2026-04-29 08:59 37.62985 61.86946 35022 ft 531 kts 122°
2026-04-29 09:00 37.58946 61.94763 35022 ft 529 kts 128°
2026-04-29 09:00 37.54635 62.02146 35022 ft 527 kts 129°
2026-04-29 09:01 37.50264 62.09512 35021 ft 528 kts 129°
2026-04-29 09:01 37.45882 62.16929 35022 ft 529 kts 129°
2026-04-29 09:02 37.41534 62.24301 35021 ft 528 kts 129°
2026-04-29 09:02 37.37157 62.31713 35021 ft 527 kts 129°
2026-04-29 09:03 37.32799 62.39072 35022 ft 528 kts 129°
2026-04-29 09:03 37.28420 62.46449 35022 ft 528 kts 129°
2026-04-29 09:04 37.24025 62.53839 35022 ft 528 kts 129°
2026-04-29 09:04 37.19661 62.61160 35023 ft 527 kts 129°
2026-04-29 09:05 37.15252 62.68513 35021 ft 528 kts 130°
2026-04-29 09:05 37.10829 62.75795 35021 ft 527 kts 130°
2026-04-29 09:06 37.06416 62.83103 35021 ft 528 kts 130°
2026-04-29 09:06 37.02010 62.90424 35021 ft 529 kts 131°
2026-04-29 09:07 36.97590 62.97759 35021 ft 531 kts 131°
2026-04-29 09:07 36.93143 63.05124 35023 ft 532 kts 131°
2026-04-29 09:08 36.88668 63.12516 35023 ft 534 kts 131°
2026-04-29 09:08 36.84197 63.19887 35022 ft 536 kts 131°
2026-04-29 09:09 36.79689 63.27305 35020 ft 535 kts 131°
2026-04-29 09:09 36.75222 63.34639 35021 ft 533 kts 131°
2026-04-29 09:10 36.70750 63.41961 35023 ft 535 kts 131°
2026-04-29 09:10 36.66252 63.49312 35022 ft 535 kts 131°
2026-04-29 09:11 36.61739 63.56671 35021 ft 533 kts 131°
2026-04-29 09:11 36.57230 63.64005 35022 ft 535 kts 131°
2026-04-29 09:12 36.52723 63.71255 35020 ft 533 kts 133°
2026-04-29 09:12 36.48160 63.78561 35023 ft 534 kts 132°
2026-04-29 09:13 36.43639 63.85845 35022 ft 535 kts 132°
2026-04-29 09:13 36.39113 63.93146 35022 ft 533 kts 132°
2026-04-29 09:14 36.34616 64.00386 35021 ft 533 kts 132°
2026-04-29 09:14 36.30104 64.07634 35022 ft 533 kts 132°
2026-04-29 09:15 36.25560 64.14913 35023 ft 535 kts 132°
2026-04-29 09:15 36.21053 64.22124 35022 ft 533 kts 132°
2026-04-29 09:16 36.16572 64.29411 35182 ft 534 kts 129°
2026-04-29 09:16 36.14529 64.33220 35518 ft 533 kts 126°
2026-04-29 09:16 36.12566 64.37109 35811 ft 533 kts 125°
2026-04-29 09:16 36.10630 64.41025 35981 ft 535 kts 125°
2026-04-29 09:17 36.08688 64.44961 36349 ft 532 kts 125°
2026-04-29 09:17 36.06772 64.48826 36717 ft 529 kts 126°
2026-04-29 09:17 36.04847 64.52680 36951 ft 528 kts 126°
2026-04-29 09:18 36.00972 64.60378 37018 ft 536 kts 126°
2026-04-29 09:18 35.97016 64.68185 37001 ft 536 kts 126°
2026-04-29 09:19 35.93064 64.75905 36992 ft 530 kts 126°
2026-04-29 09:19 35.89379 64.83807 36997 ft 534 kts 123°
2026-04-29 09:20 35.85804 64.91867 36993 ft 540 kts 122°
2026-04-29 09:20 35.82229 64.99921 36980 ft 538 kts 122°
2026-04-29 09:21 35.78633 65.07959 36964 ft 536 kts 122°
2026-04-29 09:21 35.75014 65.16005 36964 ft 538 kts 122°
2026-04-29 09:22 35.71394 65.24033 36962 ft 538 kts 122°
2026-04-29 09:22 35.67763 65.32071 36962 ft 538 kts 122°
2026-04-29 09:23 35.64151 65.40048 36963 ft 537 kts 122°
2026-04-29 09:23 35.60516 65.48056 36964 ft 539 kts 122°
2026-04-29 09:24 35.56864 65.56084 36963 ft 538 kts 122°
2026-04-29 09:24 35.53239 65.64032 36962 ft 537 kts 122°
2026-04-29 09:25 35.49539 65.72043 36962 ft 537 kts 123°
2026-04-29 09:25 35.45873 65.79942 36963 ft 537 kts 122°
2026-04-29 09:26 35.42211 65.87887 36962 ft 537 kts 122°
2026-04-29 09:26 35.38540 65.95864 36963 ft 537 kts 122°
2026-04-29 09:27 35.34866 66.03826 36962 ft 537 kts 122°
2026-04-29 09:27 35.31202 66.11751 36964 ft 537 kts 122°
2026-04-29 09:28 35.27528 66.19676 36964 ft 538 kts 122°
2026-04-29 09:28 35.23835 66.27624 36962 ft 538 kts 122°
2026-04-29 09:29 35.20148 66.35541 36962 ft 537 kts 122°
2026-04-29 09:29 35.14654 66.47303 36962 ft 538 kts 122°
2026-04-29 09:30 35.10950 66.55212 36963 ft 537 kts 122°
2026-04-29 09:30 35.07256 66.63079 36964 ft 537 kts 122°
2026-04-29 09:31 35.03504 66.70988 36962 ft 536 kts 123°
2026-04-29 09:31 34.99741 66.78860 36963 ft 536 kts 123°
2026-04-29 09:32 34.96004 66.86730 36917 ft 536 kts 123°
2026-04-29 09:32 34.92295 66.94559 36904 ft 535 kts 123°
2026-04-29 09:33 34.88565 67.02415 36903 ft 535 kts 122°
2026-04-29 09:33 34.84853 67.10221 36905 ft 536 kts 122°
2026-04-29 09:34 34.81126 67.18038 36904 ft 536 kts 122°
2026-04-29 09:34 34.77387 67.25858 36904 ft 537 kts 122°
2026-04-29 09:35 34.73624 67.33712 36904 ft 537 kts 122°
2026-04-29 09:35 34.69876 67.41516 36904 ft 537 kts 122°
2026-04-29 09:36 34.66116 67.49329 36903 ft 537 kts 122°
2026-04-29 09:36 34.62362 67.57110 36904 ft 537 kts 122°
2026-04-29 09:37 34.58573 67.64945 36903 ft 538 kts 122°
2026-04-29 09:37 34.54847 67.72549 36903 ft 536 kts 123°
2026-04-29 09:38 34.51021 67.80339 36903 ft 537 kts 123°
2026-04-29 09:38 34.47232 67.88103 36904 ft 537 kts 123°
2026-04-29 09:39 34.43442 67.95872 36894 ft 536 kts 123°
2026-04-29 09:39 34.39650 68.03634 36827 ft 537 kts 123°
2026-04-29 09:40 34.35864 68.11362 36735 ft 536 kts 123°
2026-04-29 09:40 34.32059 68.19112 36675 ft 536 kts 123°
2026-04-29 09:41 34.28262 68.26828 36667 ft 536 kts 123°
2026-04-29 09:41 34.24456 68.34544 36668 ft 537 kts 123°
2026-04-29 09:42 34.20645 68.42257 36667 ft 537 kts 123°
2026-04-29 09:42 34.16827 68.49966 36668 ft 536 kts 123°
2026-04-29 09:43 34.12995 68.57686 36668 ft 537 kts 123°
2026-04-29 09:43 34.09164 68.65386 36667 ft 537 kts 123°
2026-04-29 09:44 34.05293 68.73058 36667 ft 535 kts 124°
2026-04-29 09:44 34.01442 68.80685 36667 ft 537 kts 123°
2026-04-29 09:45 33.97577 68.88386 36667 ft 537 kts 123°
2026-04-29 09:45 33.93743 68.96028 36667 ft 537 kts 123°
2026-04-29 09:46 33.89867 69.03738 36667 ft 539 kts 123°
2026-04-29 09:46 33.85986 69.11446 36666 ft 540 kts 123°
2026-04-29 09:47 33.82112 69.19122 36668 ft 541 kts 123°
2026-04-29 09:47 33.78217 69.26819 36667 ft 539 kts 123°
2026-04-29 09:48 33.74315 69.34513 36667 ft 540 kts 123°
2026-04-29 09:48 33.70409 69.42199 36668 ft 540 kts 123°
2026-04-29 09:49 33.66507 69.49860 36667 ft 540 kts 123°
2026-04-29 09:49 33.62577 69.57560 36667 ft 540 kts 123°
2026-04-29 09:50 33.58669 69.65200 36667 ft 540 kts 124°
2026-04-29 09:50 33.54724 69.72807 36668 ft 539 kts 124°
2026-04-29 09:51 33.50528 69.80190 36667 ft 538 kts 129°
2026-04-29 09:51 33.46044 69.87334 36668 ft 538 kts 130°
2026-04-29 09:52 33.41508 69.94437 36667 ft 537 kts 130°
2026-04-29 09:52 33.36984 70.01539 36668 ft 537 kts 130°
2026-04-29 09:53 33.32493 70.08598 36668 ft 538 kts 130°
2026-04-29 09:53 33.27965 70.15704 36667 ft 537 kts 130°
2026-04-29 09:54 33.23426 70.22816 36667 ft 538 kts 130°
2026-04-29 09:54 33.18911 70.29875 36668 ft 538 kts 130°
2026-04-29 09:55 33.14381 70.36943 36668 ft 537 kts 130°
2026-04-29 09:55 33.09862 70.43981 36668 ft 538 kts 130°
2026-04-29 09:56 33.05309 70.51057 36668 ft 540 kts 130°
2026-04-29 09:56 33.00730 70.58162 36667 ft 540 kts 130°
2026-04-29 09:57 32.96186 70.65198 36668 ft 541 kts 131°
2026-04-29 09:57 32.91562 70.72268 36667 ft 540 kts 132°
2026-04-29 09:58 32.86964 70.79275 36668 ft 540 kts 132°
2026-04-29 09:58 32.82326 70.86320 36667 ft 540 kts 132°
2026-04-29 09:59 32.77698 70.93339 36667 ft 540 kts 132°
2026-04-29 09:59 32.73094 71.00309 36668 ft 540 kts 132°
2026-04-29 10:00 32.68449 71.07330 36667 ft 540 kts 131°
2026-04-29 10:00 32.63841 71.14281 36668 ft 540 kts 132°
2026-04-29 10:01 32.59200 71.21269 36667 ft 540 kts 131°
2026-04-29 10:01 32.54572 71.28224 36669 ft 540 kts 131°
2026-04-29 10:02 32.49936 71.35179 36668 ft 539 kts 132°
2026-04-29 10:02 32.45351 71.42043 36667 ft 539 kts 131°
2026-04-29 10:03 32.40715 71.48972 36666 ft 540 kts 131°
2026-04-29 10:03 32.36069 71.55904 36672 ft 540 kts 131°
2026-04-29 10:04 32.31385 71.62877 36689 ft 541 kts 131°
2026-04-29 10:04 32.26727 71.69761 36706 ft 539 kts 133°
2026-04-29 10:05 32.22033 71.76644 36724 ft 539 kts 133°
2026-04-29 10:05 32.17354 71.83543 36726 ft 540 kts 133°
2026-04-29 10:06 32.12691 71.90435 36727 ft 540 kts 132°
2026-04-29 10:06 32.08041 71.97300 36728 ft 540 kts 132°
2026-04-29 10:07 32.03336 72.04209 36726 ft 539 kts 133°
2026-04-29 10:07 31.98530 72.10952 36727 ft 538 kts 134°
2026-04-29 10:08 31.93689 72.17612 36726 ft 538 kts 134°
2026-04-29 10:08 31.88840 72.24277 36726 ft 539 kts 134°
2026-04-29 10:09 31.84002 72.30931 36726 ft 539 kts 134°
2026-04-29 10:09 31.79163 72.37581 36726 ft 537 kts 134°
2026-04-29 10:10 31.74295 72.44254 36726 ft 539 kts 134°
2026-04-29 10:10 31.69422 72.50922 36726 ft 539 kts 134°
2026-04-29 10:11 31.64544 72.57587 36726 ft 538 kts 134°
2026-04-29 10:11 31.59765 72.64104 36726 ft 538 kts 134°
2026-04-29 10:12 31.54919 72.70650 36726 ft 537 kts 135°
2026-04-29 10:12 31.50062 72.77184 36726 ft 537 kts 135°
2026-04-29 10:13 31.45151 72.83826 36725 ft 539 kts 135°
2026-04-29 10:13 31.40264 72.90445 36727 ft 538 kts 135°
2026-04-29 10:14 31.35418 72.97066 36726 ft 538 kts 132°
2026-04-29 10:14 31.31063 73.04163 36728 ft 542 kts 127°
2026-04-29 10:15 31.26985 73.11520 36728 ft 541 kts 126°
2026-04-29 10:15 31.22924 73.18889 36729 ft 539 kts 126°
2026-04-29 10:16 31.18839 73.26222 36726 ft 539 kts 126°
2026-04-29 10:16 31.14761 73.33502 36727 ft 539 kts 126°
2026-04-29 10:17 31.10656 73.40815 36728 ft 540 kts 126°
2026-04-29 10:17 31.06552 73.48112 36729 ft 541 kts 126°
2026-04-29 10:18 31.02434 73.55423 36724 ft 538 kts 127°
2026-04-29 10:18 30.98343 73.62672 36726 ft 539 kts 127°
2026-04-29 10:19 30.94193 73.69968 36726 ft 541 kts 128°
2026-04-29 10:19 30.90020 73.77246 36718 ft 540 kts 128°
2026-04-29 10:20 30.85888 73.84502 36710 ft 541 kts 128°
2026-04-29 10:20 30.81752 73.91778 36701 ft 541 kts 128°
2026-04-29 10:21 30.77626 73.99024 36697 ft 541 kts 128°
2026-04-29 10:21 30.73471 74.06307 36697 ft 541 kts 128°
2026-04-29 10:22 30.69323 74.13560 36697 ft 541 kts 128°
2026-04-29 10:22 30.65193 74.20771 36697 ft 541 kts 128°
2026-04-29 10:23 30.61032 74.28021 36697 ft 541 kts 128°
2026-04-29 10:23 30.56870 74.35262 36697 ft 541 kts 128°
2026-04-29 10:24 30.52714 74.42477 36697 ft 541 kts 128°
2026-04-29 10:24 30.48564 74.49669 36697 ft 541 kts 128°
2026-04-29 10:25 30.44397 74.56879 36697 ft 541 kts 128°
2026-04-29 10:25 30.40209 74.64110 36697 ft 541 kts 128°
2026-04-29 10:26 30.36021 74.71271 36696 ft 540 kts 129°
2026-04-29 10:26 30.31800 74.78459 36697 ft 540 kts 128°
2026-04-29 10:27 30.25510 74.89236 36697 ft 540 kts 128°
2026-04-29 10:28 30.21319 74.96418 36697 ft 540 kts 128°
2026-04-29 10:28 30.17154 75.03542 36697 ft 540 kts 128°
2026-04-29 10:29 30.12935 75.10742 36658 ft 541 kts 128°
2026-04-29 10:29 30.08794 75.17804 36557 ft 533 kts 129°
2026-04-29 10:29 30.06696 75.21371 36386 ft 539 kts 128°
2026-04-29 10:30 30.04578 75.24966 36155 ft 540 kts 128°
2026-04-29 10:30 30.02446 75.28457 35928 ft 529 kts 132°
2026-04-29 10:30 30.00166 75.31735 35572 ft 520 kts 135°
2026-04-29 10:30 29.97818 75.34822 35134 ft 514 kts 137°
2026-04-29 10:31 29.95408 75.37852 34681 ft 509 kts 138°
2026-04-29 10:31 29.93026 75.40799 34230 ft 504 kts 139°
2026-04-29 10:31 29.90633 75.43753 33774 ft 500 kts 139°
2026-04-29 10:31 29.88289 75.46651 33322 ft 496 kts 138°
2026-04-29 10:32 29.85941 75.49560 32868 ft 494 kts 138°
2026-04-29 10:32 29.83611 75.52444 32435 ft 505 kts 137°
2026-04-29 10:32 29.81181 75.55450 32008 ft 520 kts 137°
2026-04-29 10:32 29.78704 75.58521 31578 ft 524 kts 136°
2026-04-29 10:33 29.76231 75.61596 31147 ft 520 kts 136°
2026-04-29 10:33 29.73793 75.64628 30719 ft 515 kts 136°
2026-04-29 10:33 29.71384 75.67608 30290 ft 510 kts 137°
2026-04-29 10:33 29.68978 75.70557 29863 ft 505 kts 137°
2026-04-29 10:34 29.66567 75.73512 29431 ft 502 kts 136°
2026-04-29 10:34 29.64200 75.76421 29003 ft 499 kts 136°
2026-04-29 10:34 29.61848 75.79317 28574 ft 497 kts 136°
2026-04-29 10:34 29.59513 75.82194 28134 ft 494 kts 135°
2026-04-29 10:35 29.57180 75.85073 27693 ft 490 kts 135°
2026-04-29 10:35 29.54890 75.87898 27256 ft 487 kts 135°
2026-04-29 10:35 29.52584 75.90741 26813 ft 484 kts 135°
2026-04-29 10:35 29.50333 75.93513 26379 ft 480 kts 135°
2026-04-29 10:36 29.48054 75.96319 25935 ft 477 kts 135°
2026-04-29 10:36 29.45794 75.99097 25534 ft 473 kts 134°
2026-04-29 10:36 29.43564 76.01839 25159 ft 470 kts 134°
2026-04-29 10:36 29.41369 76.04534 24830 ft 467 kts 134°
2026-04-29 10:37 29.39168 76.07235 24510 ft 466 kts 134°
2026-04-29 10:37 29.36943 76.09963 24095 ft 464 kts 134°
2026-04-29 10:37 29.34760 76.12637 23684 ft 460 kts 134°
2026-04-29 10:37 29.32604 76.15295 23272 ft 456 kts 133°
2026-04-29 10:38 29.30466 76.17977 22869 ft 452 kts 133°
2026-04-29 10:38 29.28359 76.20642 22492 ft 449 kts 132°
2026-04-29 10:38 29.26280 76.23277 22127 ft 446 kts 132°
2026-04-29 10:38 29.24213 76.25895 21786 ft 445 kts 132°
2026-04-29 10:39 29.22152 76.28501 21301 ft 443 kts 132°
2026-04-29 10:39 29.20087 76.31110 20810 ft 437 kts 132°
2026-04-29 10:39 29.18084 76.33637 20328 ft 432 kts 131°
2026-04-29 10:39 29.16081 76.36161 19841 ft 428 kts 131°
2026-04-29 10:40 29.14091 76.38669 19353 ft 424 kts 131°
2026-04-29 10:40 29.12119 76.41151 18838 ft 421 kts 131°
2026-04-29 10:40 29.10175 76.43597 18314 ft 414 kts 131°
2026-04-29 10:40 29.08265 76.45999 17791 ft 406 kts 131°
2026-04-29 10:41 29.06371 76.48379 17262 ft 399 kts 131°
2026-04-29 10:41 29.04530 76.50691 16739 ft 391 kts 131°
2026-04-29 10:41 29.02713 76.52971 16213 ft 384 kts 131°
2026-04-29 10:41 29.00934 76.55203 15688 ft 377 kts 131°
2026-04-29 10:42 28.99189 76.57391 15164 ft 371 kts 131°
2026-04-29 10:42 28.97496 76.59512 14651 ft 364 kts 131°
2026-04-29 10:42 28.95792 76.61646 14122 ft 358 kts 131°
2026-04-29 10:42 28.94163 76.63744 13595 ft 350 kts 127°
2026-04-29 10:43 28.92700 76.65883 13078 ft 344 kts 128°
2026-04-29 10:43 28.91199 76.67983 12542 ft 337 kts 129°
2026-04-29 10:43 28.89686 76.69966 11995 ft 331 kts 131°
2026-04-29 10:43 28.88146 76.71904 11441 ft 325 kts 131°
2026-04-29 10:44 28.86627 76.73757 10895 ft 320 kts 133°
2026-04-29 10:44 28.85083 76.75556 10341 ft 314 kts 135°
2026-04-29 10:44 28.83345 76.77017 9794 ft 312 kts 149°
2026-04-29 10:44 28.81478 76.78191 9248 ft 307 kts 151°
2026-04-29 10:45 28.79591 76.79321 8691 ft 300 kts 151°
2026-04-29 10:45 28.77781 76.80390 8147 ft 295 kts 151°
2026-04-29 10:45 28.75978 76.81446 7597 ft 290 kts 151°
2026-04-29 10:45 28.74207 76.82482 7047 ft 286 kts 149°
2026-04-29 10:46 28.72621 76.83777 6499 ft 280 kts 138°
2026-04-29 10:46 28.71148 76.85231 5944 ft 277 kts 136°
2026-04-29 10:46 28.69727 76.86668 5397 ft 275 kts 136°
2026-04-29 10:46 28.68316 76.88099 4850 ft 273 kts 136°
2026-04-29 10:47 28.66909 76.89531 4293 ft 267 kts 136°
2026-04-29 10:47 28.65543 76.90926 3743 ft 262 kts 136°
2026-04-29 10:47 28.64216 76.92283 3352 ft 250 kts 136°
2026-04-29 10:47 28.62931 76.93552 2973 ft 241 kts 140°
2026-04-29 10:48 28.61648 76.94710 2696 ft 228 kts 139°
2026-04-29 10:48 28.60573 76.96000 2622 ft 225 kts 127°
2026-04-29 10:48 28.59551 76.97342 2603 ft 225 kts 136°
2026-04-29 10:48 28.58343 76.98516 2435 ft 229 kts 140°
2026-04-29 10:49 28.57155 76.99663 2117 ft 220 kts 126°
2026-04-29 10:49 28.56605 77.01236 2028 ft 217 kts 91°
2026-04-29 10:49 28.56704 77.02941 1878 ft 218 kts 81°
2026-04-29 10:49 28.56999 77.04626 1817 ft 215 kts 80°
2026-04-29 10:50 28.57190 77.06302 1502 ft 216 kts 90°
2026-04-29 10:50 28.57105 77.07990 1054 ft 208 kts 96°
2026-04-29 10:50 28.57024 77.09547 828 ft 190 kts 90°
2026-04-29 10:50 28.57006 77.10957 787 ft 158 kts 91°